haerbin , China , ASIA

  • Wednesday
    October 23

    Sunny  Sunny

    64 °F  37 °F

    East  Southeast

        

  • Thursday
    October 24

    Sunny  Light rain

    66 °F  41 °F

    South  South

    4~5L   3~4L 

  • Friday
    October 25

    Sleet  Sleet

    46 °F  30 °F

    Southwest  West

    4~5L    

  • Saturday
    October 26

    Cloudy  Sunny

    46 °F  30 °F

    West  West

    3~4L    

  • Sunday
    October 27

    Sunny  Sunny

    52 °F  32 °F

    South  South

        

  • Monday
    October 28

    Light rain  Sleet

    54 °F  34 °F

    South  East

    3~4L   3~4L 

  • Tuesday
    October 29

    Cloudy  Sunny

    46 °F  30 °F

    West  West

    4~5L    

Date   Weather Temperature Humidity Total_rain Visibility Wind
11:00 Sunny 61°F 59.3% 0mm 999.9km Southeast  2.3m/s
14:00 Sunny 64°F 59.2% 0mm 999.9km Southeast  2.7m/s
17:00 Sunny 59°F 60.5% 0mm 999.9km Southeast  2.7m/s
20:00 Sunny 46°F 69.1% 0mm 999.9km Southeast  2.2m/s
23:00 Sunny 41°F 75.5% 0mm 999.9km Southeast  2.6m/s
02:00 Sunny 39°F 77.8% 0mm 999.9km Southwest  2.1m/s
05:00 Sunny 38°F 86.8% 0mm 999.9km Northwest  2.0m/s
08:00 Sunny 42°F 79.1% 0mm 999.9km Northwest  2.7m/s
11:00 Sunny 60°F 68.2% 0mm 999.9km Northwest  2.6m/s
14:00 Sunny 66°F 77.2% 0mm 999.9km Northeast  3.0m/s
17:00 Sunny 64°F 72.8% 0mm 999.9km Northeast  2.3m/s
20:00 Sunny 43°F 80.9% 0mm 999.9km Northeast  2.5m/s
23:00 Cloudy 43°F 84% 0mm 999.9km Southeast  3.4m/s
02:00 Cloudy 43°F 84.2% 0mm 999.9km Southeast  3.4m/s
05:00 Cloudy 41°F 85.2% 0mm 999.9km Southeast  3.7m/s
08:00 Light rain 48°F 78.8% 0.1mm 999.9km Southeast  3.5m/s
11:00 Sleet 46°F 77.8% 1.5mm 999.9km Southwest  4.7m/s
14:00 Sleet 46°F 74.1% 3.3mm 999.9km Southwest  4.2m/s
17:00 Sleet 46°F 72.5% 3.4mm 999.9km Southwest  3.2m/s
20:00 Sleet 39°F 75.4% 0.1mm 999.9km Southwest  2.7m/s
23:00 Overcast 36°F 80% 0mm 999.9km Southwest  2.0m/s
02:00 Overcast 32°F 81.2% 0mm 999.9km West  2.3m/s
05:00 Sleet 30°F 83% 0.2mm 999.9km Northwest  2.0m/s
08:00 Sleet 30°F 74.6% 0.1mm 999.9km Northwest  3.0m/s
11:00 Cloudy 43°F 46.5% 0mm 999.9km Northwest  4.6m/s
14:00 Cloudy 46°F 56.2% 0mm 999.9km Northwest  3.9m/s
17:00 Cloudy 40°F 59.4% 0mm 999.9km Southwest  2.4m/s
20:00 Cloudy 35°F 68.7% 0mm 999.9km Southwest  2.0m/s
23:00 Sunny 32°F 76.7% 0mm 999.9km Southwest  2.2m/s
02:00 Sunny 31°F 79.4% 0mm 999.9km Southwest  1.9m/s
05:00 Sunny 31°F 83.5% 0mm 999.9km Southwest  2.0m/s
08:00 Sunny 37°F 75.9% 0mm 999.9km Southwest  2.5m/s
11:00 Sunny 49°F 50.8% 0mm 999.9km Southwest  3.8m/s
14:00 Sunny 51°F 60.2% 0mm 999.9km Southwest  4.2m/s
17:00 Sunny 46°F 62.3% 0mm 999.9km Southwest  1.8m/s
20:00 Sunny 39°F 66.3% 0mm 999.9km Southwest  2.2m/s
23:00 Sunny 39°F 70.4% 0mm 999.9km Southeast  1.5m/s
02:00 Sunny 35°F 79.7% 0mm 999.9km Southwest  1.4m/s
05:00 Sunny 32°F 82% 0mm 999.9km Southeast  2.0m/s
08:00 Sunny 39°F 73.2% 0mm 999.9km Southwest  2.6m/s
11:00 Sunny 45°F 45.8% 0mm 999.9km Southwest  2.6m/s
14:00 Cloudy 53°F 60.2% 0mm 999.9km Southwest  4.3m/s
17:00 Light rain 53°F 58% 0.3mm 999.9km Southwest  2.6m/s
20:00 Cloudy 46°F 64.3% 0mm 999.9km Southwest  2.8m/s
23:00 Sleet 34°F 69.5% 2.3mm 999.9km Southwest  2.8m/s
02:00 Sleet 34°F 83.4% 2.3mm 999.9km Southwest  3.5m/s
05:00 Sleet 34°F 66.5% 2.3mm 999.9km Southwest  3.7m/s
08:00 Sleet 34°F 54.2% 2.3mm 999.9km Southwest  3.4m/s
11:00 Cloudy 46°F 46.9% 0mm 999.9km Southwest  3.9m/s
14:00 Cloudy 46°F 50.1% 0mm 999.9km Southwest  4.3m/s
17:00 Cloudy 44°F 53.4% 0mm 999.9km Southwest  2.6m/s
20:00 Cloudy 38°F 58.6% 0mm 999.9km Southwest  2.7m/s
23:00 Sunny 35°F 64.9% 0mm 999.9km Southwest  2.8m/s
02:00 Sunny 31°F 75.8% 0mm 999.9km Southwest  3.1m/s
05:00 Sunny 31°F 79.8% 0mm 999.9km Southwest  3.7m/s